CW9804 Weather Reports


Display with metric or nautical units.
time (UTC)temp
F
wind
direction
speed
MPH
gust
MPH
rain 1hr
in
rain 24hr
in
rain mn
in
humidity
%
barometer
mb
20260901084910 70 294 1.0 4.0 0.00 0.01 0.01 76 1022.9
20260901083410 69 283 3.0 9.0 0.00 0.01 0.01 74 1022.9
20260901081910 68 305 3.0 8.0 0.00 0.01 0.01 77 1022.7
20260901080410 68 301 3.0 8.0 0.00 0.01 0.01 78 1022.5
20260901074910 66 286 5.0 7.0 0.00 0.01 0.01 82 1022.6
20260901073410 65 272 3.0 6.0 0.00 0.01 0.01 84 1022.6
20260901071910 65 281 4.0 9.0 0.00 0.01 0.01 84 1022.8
20260901070410 64 259 6.0 8.0 0.00 0.01 0.01 85 1022.5
20260901064910 63 269 3.0 8.0 0.00 0.01 0.01 88 1022.4
20260901063410 63 294 2.0 4.0 0.00 0.01 0.01 89 1022.4
20260901061910 63 294 2.0 2.0 0.00 0.01 0.01 89 1022.2
20260901060410 63 295 3.0 6.0 0.00 0.01 0.01 88 1022.3
20260901054911 63 277 2.0 4.0 0.00 0.01 0.01 86 1022.3
20260901053411 63 254 3.0 4.0 0.00 0.01 0.01 88 1022.2
20260901051911 62 251 1.0 2.0 0.00 0.01 0.01 90 1021.8
20260901044912 62 252 1.0 2.0 0.00 0.01 0.01 90 1021.5
20260901043412 62 221 3.0 4.0 0.00 0.01 0.01 89 1021.3
20260901040412 62 221 2.0 4.0 0.01 0.01 0.01 87 1021.1
20260901034912 62 277 2.0 3.0 0.01 0.01 0.01 88 1021.0
20260901033411 63 279 0.0 6.0 0.01 0.01 0.01 88 1020.7
20260901031911 63 31 0.0 2.0 0.00 0.00 0.00 86 1020.5
20260901030411 64 31 2.0 3.0 0.00 0.00 0.00 85 1020.6
20260901024911 64 34 0.0 1.0 0.00 0.00 0.00 84 1020.7
20260901023411 64 34 1.0 2.0 0.00 0.00 0.00 84 1020.6
20260901021911 64 34 0.0 2.0 0.00 0.00 0.00 83 1020.6
20260901020411 65 34 0.0 3.0 0.00 0.00 0.00 82 1020.7
20260901014911 65 294 0.0 0.0 0.00 0.00 0.00 83 1020.8
20260901013411 65 294 1.0 2.0 0.00 0.00 0.00 81 1020.6
20260901011911 66 294 0.0 2.0 0.00 0.00 0.00 77 1020.6
20260901010411 67 289 1.0 4.0 0.00 0.00 0.00 75 1020.6
20260901004911 67 279 3.0 6.0 0.00 0.00 0.00 71 1020.5
20260901003411 68 287 1.0 3.0 0.00 0.00 0.00 69 1020.3
20260901001911 68 246 3.0 4.0 0.00 0.00 0.00 71 1020.0
20260901000413 68 250 3.0 5.0 0.00 0.00 0.00 71 1019.9
20260831234911 68 266 1.0 2.0 0.00 0.00 0.00 70 1020.0
20260831233411 69 311 4.0 8.0 0.00 0.00 0.00 70 1020.3
20260831231911 69 325 0.0 10.0 0.00 0.00 0.00 69 1019.9
20260831230411 69 38 4.0 5.0 0.00 0.00 0.00 68 1019.9
20260831224912 69 279 3.0 6.0 0.00 0.00 0.00 72 1019.7
20260831223412 70 303 3.0 7.0 0.00 0.00 0.00 69 1020.0
20260831221912 70 295 6.0 10.0 0.00 0.00 0.00 70 1020.2
20260831220412 71 302 4.0 8.0 0.00 0.00 0.00 69 1020.1
20260831214912 71 222 1.0 5.0 0.00 0.00 0.00 67 1019.7
20260831213412 72 5 3.0 5.0 0.00 0.00 0.00 62 1019.8
20260831211912 74 43 4.0 10.0 0.00 0.00 0.00 62 1019.5
20260831210411 72 62 6.0 11.0 0.00 0.00 0.00 68 1018.9
20260831204911 73 167 1.0 3.0 0.00 0.00 0.00 66 1018.0
20260831203412 74 167 1.0 3.0 0.00 0.00 0.00 66 1017.6
20260831201911 75 167 3.0 4.0 0.00 0.00 0.00 63 1017.3
20260831200411 75 172 1.0 2.0 0.00 0.00 0.00 63 1017.1
20260831194913 76 217 2.0 5.0 0.00 0.00 0.00 60 1016.5
20260831193412 76 245 3.0 4.0 0.00 0.00 0.00 60 1016.3
20260831191912 75 188 4.0 7.0 0.00 0.00 0.00 62 1015.9
20260831190412 72 257 3.0 4.0 0.00 0.00 0.00 67 1015.2
20260831184912 73 233 1.0 2.0 0.00 0.00 0.00 67 1014.8
20260831183412 73 233 1.0 3.0 0.00 0.00 0.00 64 1014.1
20260831181912 74 233 2.0 3.0 0.00 0.00 0.00 62 1013.9
20260831180411 78 233 0.0 3.0 0.00 0.00 0.00 58 1013.9
20260831174911 78 144 2.0 7.0 0.00 0.00 0.00 55 1013.5
20260831173411 78 214 3.0 4.0 0.00 0.00 0.00 55 1013.4
20260831171911 80 198 1.0 3.0 0.00 0.00 0.00 53 1013.5
20260831170411 83 214 3.0 4.0 0.00 0.00 0.00 50 1013.6
20260831164912 86 116 1.0 3.0 0.00 0.00 0.00 47 1013.8
20260831163411 89 92 0.0 2.0 0.00 0.00 0.00 46 1014.2
20260831161911 89 92 0.0 3.0 0.00 0.00 0.00 41 1014.2
20260831160411 89 79 1.0 5.0 0.00 0.00 0.00 39 1014.3
20260831154911 90 85 1.0 4.0 0.00 0.00 0.00 41 1014.4
20260831153411 90 59 3.0 4.0 0.00 0.00 0.00 38 1014.3
20260831151911 89 75 1.0 4.0 0.00 0.00 0.00 40 1014.4
20260831150410 90 161 0.0 2.0 0.00 0.00 0.00 40 1014.6
20260831144910 90 70 1.0 5.0 0.00 0.00 0.00 41 1014.8
20260831143410 90 90 3.0 6.0 0.00 0.00 0.00 39 1014.9
20260831141910 89 74 3.0 7.0 0.00 0.00 0.00 43 1014.8
20260831140410 89 74 2.0 5.0 0.00 0.00 0.00 41 1014.9
20260831134913 89 63 1.0 6.0 0.00 0.00 0.00 40 1015.0
20260831133413 88 56 2.0 9.0 0.00 0.00 0.00 45 1015.1
20260831131913 88 98 3.0 6.0 0.00 0.00 0.00 43 1015.3
20260831130413 88 51 2.0 5.0 0.00 0.00 0.00 43 1015.3
20260831124912 88 87 4.0 8.0 0.00 0.00 0.00 46 1015.6
20260831123412 88 62 0.0 2.0 0.00 0.00 0.00 45 1015.7
20260831121912 88 58 2.0 3.0 0.00 0.00 0.00 43 1015.8
20260831120412 87 65 2.0 3.0 0.00 0.00 0.00 44 1015.7
20260831114912 87 78 3.0 6.0 0.00 0.00 0.00 45 1015.8
20260831113412 86 350 1.0 3.0 0.00 0.00 0.00 47 1016.0
20260831111911 86 311 2.0 6.0 0.00 0.00 0.00 47 1016.0
20260831110411 85 45 4.0 7.0 0.00 0.00 0.00 49 1016.0
20260831104911 85 225 1.0 6.0 0.00 0.00 0.00 53 1016.2
20260831103411 84 293 2.0 5.0 0.00 0.00 0.00 52 1016.3
20260831101911 82 287 3.0 4.0 0.00 0.00 0.00 57 1016.6
20260831100411 81 285 1.0 4.0 0.00 0.00 0.00 56 1016.6
20260831094910 80 300 2.0 4.0 0.00 0.00 0.00 62 1016.8
20260831093410 79 278 0.0 3.0 0.00 0.00 0.00 64 1016.9
20260831091910 78 306 2.0 4.0 0.00 0.00 0.00 67 1017.0
20260831090410 77 15 2.0 3.0 0.00 0.00 0.00 66 1016.8